Walden, CO

10:24 AM MDT on August 31, 2016 (GMT -0600)
Walden-Jackson Cnty AP, Walde

Weather History for K33V - March, 2014

Change the Weather History Date:

Sunday, March 23, 2014

  Actual Average Record
Temperature  
Mean Temperature 24 °F -  
Max Temperature 37 °F - 51 °F (2015)
Min Temperature 10 °F - 10 °F (2014)
Degree Days  
Heating Degree Days 42    
Month to date heating degree days  
Cooling Degree Days 0    
Month to date cooling degree days  
Moisture  
Dew Point 11 °F    
Average Humidity 54    
Maximum Humidity 79    
Minimum Humidity 30    
Precipitation  
Precipitation 0.00 in - 0.00 in (2016)
Sea Level Pressure  
Sea Level Pressure 30.10 in    
Wind  
Wind Speed 11 mph (SSW)    
Max Wind Speed 23 mph    
Max Gust Speed 30 mph    
Visibility 10 miles    
Events      
T = Trace of Precipitation, MM = Missing Value Source: NWS Daily Summary

Daily Weather History Graph

Daily Weather History Graph

Search for Another Location

Airport or City:

Trip Planner

Search our weather history database for the weather conditions in past years. The results will help you decide how hot, cold, wet, or windy it might be!

Date:

Astronomy

Mar. 23, 2014 Rise Set
Actual Time 7:03 AM MDT 7:20 PM MDT
Civil Twilight 6:36 AM MDT 7:47 PM MDT
Nautical Twilight 6:03 AM MDT 8:20 PM MDT
Astronomical Twilight 5:31 AM MDT 8:52 PM MDT
Moon 1:41 AM MDT (3/23) 11:45 AM MDT (3/23)
Length of Visible Light 13h 11m
Length of Day
12h 17m
Waning Gibbous, 54% of the Moon is Illuminated
Mar 23
Waning Gibbous
Mar 23
Last Quarter
Mar 30
New
Apr 7
First Quarter
Apr 15
Full

Hourly Weather History & Observations

Time (MDT) Temp. Windchill Dew Point Humidity Pressure Visibility Wind Dir Wind Speed Gust Speed Precip Events Conditions
12:16 AM 10.4 °F -1.5 °F 5.0 °F 79% 30.17 in 10.0 mi ESE 8.1 mph - N/A   Clear
12:36 AM 10.4 °F -2.4 °F 5.0 °F 79% 30.17 in 10.0 mi ESE 9.2 mph - N/A   Clear
12:56 AM 10.4 °F 2.2 °F 5.0 °F 79% 30.17 in 10.0 mi ESE 4.6 mph - N/A   Clear
1:16 AM 10.4 °F 0.8 °F 5.0 °F 79% 30.16 in 10.0 mi SE 5.8 mph - N/A   Clear
1:35 AM 10.4 °F 0.8 °F 3.2 °F 73% 30.16 in 10.0 mi ESE 5.8 mph - N/A   Clear
1:56 AM 10.4 °F 0.8 °F 5.0 °F 79% 30.16 in 10.0 mi SE 5.8 mph - N/A   Clear
2:16 AM 10.4 °F -0.4 °F 3.2 °F 73% 30.16 in 10.0 mi ESE 6.9 mph - N/A   Clear
2:35 AM 10.4 °F -0.4 °F 5.0 °F 79% 30.16 in 10.0 mi ESE 6.9 mph - N/A   Clear
2:56 AM 12.2 °F 1.7 °F 5.0 °F 73% 30.15 in 10.0 mi ESE 6.9 mph - N/A   Clear
3:14 AM 12.2 °F -0.2 °F 5.0 °F 73% 30.14 in 10.0 mi SE 9.2 mph - N/A   Clear
3:36 AM 12.2 °F 1.7 °F 6.8 °F 79% 30.14 in 10.0 mi ESE 6.9 mph - N/A   Clear
3:56 AM 14.0 °F 5.1 °F 8.6 °F 79% 30.13 in 10.0 mi SE 5.8 mph - N/A   Clear
4:16 AM 17.6 °F 7.3 °F 10.4 °F 73% 30.13 in 10.0 mi South 8.1 mph - N/A   Clear
4:36 AM 19.4 °F 8.6 °F 10.4 °F 68% 30.13 in 10.0 mi South 9.2 mph - N/A   Clear
4:56 AM 19.4 °F 7.9 °F 10.4 °F 68% 30.13 in 10.0 mi South 10.4 mph - N/A   Clear
5:16 AM 19.4 °F 7.9 °F 10.4 °F 68% 30.13 in 10.0 mi South 10.4 mph - N/A   Clear
5:36 AM 17.6 °F 5.0 °F 10.4 °F 73% 30.13 in 10.0 mi South 11.5 mph - N/A   Clear
5:56 AM 17.6 °F 8.2 °F 10.4 °F 73% 30.13 in 10.0 mi SSE 6.9 mph - N/A   Clear
6:16 AM 15.8 °F 6.1 °F 10.4 °F 79% 30.13 in 10.0 mi ESE 6.9 mph - N/A   Clear
6:35 AM 17.6 °F 7.3 °F 10.4 °F 73% 30.13 in 10.0 mi SSE 8.1 mph - N/A   Clear
6:56 AM 17.6 °F 8.2 °F 10.4 °F 73% 30.13 in 10.0 mi South 6.9 mph - N/A   Clear
7:16 AM 17.6 °F 4.3 °F 8.6 °F 68% 30.13 in 10.0 mi SSW 12.7 mph - N/A   Clear
7:36 AM 14.0 °F 3.9 °F 8.6 °F 79% 30.13 in 10.0 mi SSW 6.9 mph - N/A   Clear
7:56 AM 19.4 °F 9.5 °F 10.4 °F 68% 30.13 in 10.0 mi South 8.1 mph - N/A   Clear
8:16 AM 23.0 °F 11.7 °F 12.2 °F 63% 30.13 in 10.0 mi South 11.5 mph - N/A   Clear
8:36 AM 26.6 °F 15.7 °F 12.2 °F 55% 30.13 in 10.0 mi SSE 12.7 mph 18.4 mph N/A   Clear
8:56 AM 28.4 °F 18.5 °F 12.2 °F 51% 30.13 in 10.0 mi South 11.5 mph 19.6 mph N/A   Clear
9:16 AM 30.2 °F 18.9 °F 14.0 °F 51% 30.13 in 10.0 mi SSE 16.1 mph - N/A   Clear
9:36 AM 30.2 °F 18.1 °F 12.2 °F 47% 30.13 in 10.0 mi SE 18.4 mph - N/A   Clear
9:55 AM 30.2 °F 20.2 °F 14.0 °F 51% 30.13 in 10.0 mi SSE 12.7 mph - N/A   Clear
10:16 AM 30.2 °F 20.2 °F 14.0 °F 51% 30.13 in 10.0 mi South 12.7 mph - N/A   Clear
10:35 AM 30.2 °F 19.8 °F 12.2 °F 47% 30.12 in 10.0 mi SSW 13.8 mph - N/A   Clear
10:56 AM 32.0 °F 21.6 °F 10.4 °F 41% 30.13 in 10.0 mi SSW 15.0 mph - N/A   Clear
11:15 AM 33.8 °F 24.8 °F 14.0 °F 44% 30.13 in 10.0 mi South 12.7 mph 21.9 mph N/A   Clear
11:36 AM 33.8 °F 25.3 °F 14.0 °F 44% 30.12 in 10.0 mi SW 11.5 mph 17.3 mph N/A   Clear
11:56 AM 33.8 °F 23.5 °F 15.8 °F 48% 30.11 in 10.0 mi SW 16.1 mph 21.9 mph N/A   Clear
12:15 PM 33.8 °F 22.5 °F 14.0 °F 44% 30.11 in 10.0 mi SW 19.6 mph 23.0 mph N/A   Clear
12:36 PM 35.6 °F 24.5 °F 17.6 °F 48% 30.10 in 10.0 mi WSW 20.7 mph 29.9 mph N/A   Clear
12:56 PM 35.6 °F 24.5 °F 15.8 °F 44% 30.10 in 10.0 mi WSW 20.7 mph 27.6 mph N/A   Clear
1:16 PM 35.6 °F 24.8 °F 15.8 °F 44% 30.10 in 10.0 mi WSW 19.6 mph 26.5 mph N/A   Clear
1:36 PM 35.6 °F 25.5 °F 14.0 °F 41% 30.09 in 10.0 mi WSW 17.3 mph 27.6 mph N/A   Clear
1:56 PM 35.6 °F 25.5 °F 14.0 °F 41% 30.09 in 10.0 mi WSW 17.3 mph 23.0 mph N/A   Clear
2:16 PM 35.6 °F 25.2 °F 12.2 °F 38% 30.08 in 10.0 mi WSW 18.4 mph 24.2 mph N/A   Clear
2:36 PM 35.6 °F 25.5 °F 14.0 °F 41% 30.07 in 10.0 mi WSW 17.3 mph 23.0 mph N/A   Clear
2:56 PM 35.6 °F 24.8 °F 17.6 °F 48% 30.07 in 10.0 mi WSW 19.6 mph - N/A   Clear
3:16 PM 35.6 °F 25.5 °F 17.6 °F 48% 30.06 in 10.0 mi SW 17.3 mph 24.2 mph N/A   Clear
3:36 PM 35.6 °F 24.0 °F 15.8 °F 44% 30.05 in 10.0 mi WSW 23.0 mph 28.8 mph N/A   Clear
3:56 PM 37.4 °F 26.6 °F 15.8 °F 41% 30.04 in 10.0 mi WSW 21.9 mph 26.5 mph N/A   Clear
4:16 PM 37.4 °F 27.5 °F 15.8 °F 41% 30.04 in 10.0 mi WSW 18.4 mph 28.8 mph N/A   Clear
4:36 PM 37.4 °F 28.2 °F 12.2 °F 36% 30.04 in 10.0 mi WSW 16.1 mph 27.6 mph N/A   Clear
4:56 PM 37.4 °F 27.5 °F 10.4 °F 33% 30.03 in 10.0 mi SW 18.4 mph - N/A   Clear
5:16 PM 37.4 °F 27.8 °F 10.4 °F 33% 30.03 in 10.0 mi WSW 17.3 mph 25.3 mph N/A   Clear
5:36 PM 37.4 °F 26.9 °F 10.4 °F 33% 30.03 in 10.0 mi WSW 20.7 mph 28.8 mph N/A   Clear
5:55 PM 37.4 °F 28.2 °F 8.6 °F 30% 30.03 in 10.0 mi WSW 16.1 mph 27.6 mph N/A   Clear
6:16 PM 35.6 °F 24.5 °F 8.6 °F 33% 30.03 in 10.0 mi West 20.7 mph 25.3 mph N/A   Clear
6:36 PM 35.6 °F 26.2 °F 10.4 °F 35% 30.03 in 10.0 mi WSW 15.0 mph 21.9 mph N/A   Clear
6:56 PM 33.8 °F 22.8 °F 8.6 °F 35% 30.04 in 10.0 mi WSW 18.4 mph 27.6 mph N/A   Clear
7:16 PM 33.8 °F 25.3 °F 10.4 °F 38% 30.04 in 10.0 mi West 11.5 mph - N/A   Clear
7:36 PM 32.0 °F 22.5 °F 12.2 °F 44% 30.05 in 10.0 mi West 12.7 mph - N/A   Scattered Clouds
7:56 PM 32.0 °F 21.6 °F 10.4 °F 41% 30.05 in 10.0 mi West 15.0 mph - N/A   Clear
8:16 PM 32.0 °F 20.1 °F 8.6 °F 38% 30.06 in 10.0 mi West 19.6 mph 26.5 mph N/A   Clear
8:36 PM 33.8 °F 23.2 °F 8.6 °F 35% 30.07 in 10.0 mi West 17.3 mph - N/A   Clear
8:56 PM 32.0 °F 21.6 °F 6.8 °F 35% 30.08 in 10.0 mi West 15.0 mph 21.9 mph N/A   Clear
9:15 PM 30.2 °F 19.8 °F 6.8 °F 37% 30.08 in 10.0 mi West 13.8 mph - N/A   Scattered Clouds
9:35 PM 30.2 °F 20.2 °F 10.4 °F 44% 30.08 in 10.0 mi West 12.7 mph - N/A   Clear
9:55 PM 30.2 °F 19.8 °F 8.6 °F 40% 30.09 in 10.0 mi West 13.8 mph 20.7 mph N/A   Clear
10:16 PM 28.4 °F 20.4 °F 12.2 °F 51% 30.09 in 10.0 mi WNW 8.1 mph - N/A   Clear
10:36 PM 28.4 °F 20.4 °F 12.2 °F 51% 30.09 in 10.0 mi NW 8.1 mph - N/A   Scattered Clouds
10:56 PM 28.4 °F 19.7 °F 12.2 °F 51% 30.09 in 10.0 mi NNW 9.2 mph - N/A   Mostly Cloudy
11:16 PM 28.4 °F 19.1 °F 10.4 °F 47% 30.09 in 10.0 mi WNW 10.4 mph - N/A   Overcast
11:36 PM 28.4 °F - 10.4 °F 47% 30.10 in 10.0 mi Calm Calm - N/A   Mostly Cloudy
11:56 PM 28.4 °F 24.6 °F 10.4 °F 47% 30.10 in 10.0 mi SW 3.5 mph - N/A   Scattered Clouds